Погода в Порт-Огасте

Австралия     32°29′23″S   137°46′03″E
темп.,
°C
ветер,
м/с
пор.,
м/с
влажн.,
%
обл.,
%
осадки,
мм/ч
давл.,
гПа
погр.,
м
9 мая, вс
вс900:30+16ю46847 0.0 1019229
03:30+15ю478858 0.0 1019148
06:30+14ююв33875 0.0 101964
09:30+18ю43697 0.0 1020640
12:30+20ю345212 0.0 10191258
15:30+21ю24440 0.0 10171349
18:30+15юв22665 0.0 101817
21:30+14сз01680 0.0 101811
10 мая, пн
пн1000:30+14зюз336553 0.0 101828
03:30+12сз1277100 0.0 101723
06:30+12с337930 0.0 101842
09:30+17з586751 0.0 1018861
12:30+18ю9106685 0.4 10171182
15:30+18ю101148100 0.5 10181608
18:30+15ю711545 0.0 1021558
21:30+13ююв5959100 0.0 1023218
11 мая, вт
вт1100:30+12юв5966100 0.0 1023262
03:30+11юв4567100 0.0 102380
06:30+10юв45695 0.0 102579
09:30+14юв57505 0.0 10261246
12:30+17ю67425 0.0 10251391
15:30+18ю77390 0.0 10231308
18:30+14ююз610560 0.0 1024207
21:30+12юв34540 0.0 102646
12 мая, ср
ср1200:30+9юв22560 0.0 102616
03:30+8вюв22590 0.0 102517
06:30+6в11660 0.0 102516
09:30+13в12430 0.0 1026347
12:30+18св12280 0.0 10231153
15:30+19юз11250 0.0 1021972
18:30+12в11410 0.0 102211
21:30+11всв11440 0.0 102211
13 мая, чт
чт1300:30+9св11460 0.0 102112
03:30+9ссз00487 0.0 102011
06:30+9ссв22470 0.0 102112
09:30+16ссз33310 0.0 1021328
12:30+20з34250 0.0 10201331
15:30+22юз46246 0.0 10181999
18:30+16ююв59511 0.0 1020153
21:30+16ю8128197 0.1 1022626